CE2KVL-1 Weather Reports


time (UTC)temp
F
wind
direction
speed
knots
gust
knots
rain 1hr
in
rain 24hr
in
rain mn
in
humidity
%
barometer
mb
20260509135306 52 0.0 0.0 0.00 0.00 0.00 81 1023.1
20260509134807 52 0.0 0.0 0.00 0.00 0.00 81 1023.3
20260509134306 52 0.0 0.0 0.00 0.00 0.00 82 1023.1
20260509133807 51 0.0 0.0 0.00 0.00 0.00 83 1023.8
20260509133307 52 0.0 0.0 0.00 0.00 0.00 82 1023.1
20260509132806 51 0.0 0.0 0.00 0.00 0.00 83 1023.2
20260509132307 51 0.0 0.0 0.00 0.00 0.00 85 1023.2
20260509131806 50 0.0 0.0 0.00 0.00 0.00 85 1023.6
20260509131306 50 0.0 0.0 0.00 0.00 0.00 86 1023.5
20260509130806 50 0.0 0.0 0.00 0.00 0.00 85 1023.5
20260509130307 50 0.0 0.0 0.00 0.00 0.00 86 1023.6
20260509125806 50 0.0 0.0 0.00 0.00 0.00 85 1023.7
20260509125308 49 0.0 0.0 0.00 0.00 0.00 85 1024.0
20260509124807 49 0.0 0.0 0.00 0.00 0.00 84 1023.7
20260509124306 49 0.0 0.0 0.00 0.00 0.00 84 1023.8
20260509123807 49 0.0 0.0 0.00 0.00 0.00 84 1023.8
20260509123306 49 0.0 0.0 0.00 0.00 0.00 83 1023.8
20260509122807 48 0.0 0.0 0.00 0.00 0.00 84 1023.7
20260509122306 48 0.0 0.0 0.00 0.00 0.00 86 1024.1
20260509121806 48 0.0 0.0 0.00 0.00 0.00 88 1023.6
20260509121307 47 0.0 0.0 0.00 0.00 0.00 88 1024.3
20260509120806 47 0.0 0.0 0.00 0.00 0.00 88 1023.9
20260509120307 47 0.0 0.0 0.00 0.00 0.00 89 1024.1
20260509115806 47 0.0 0.0 0.00 0.00 0.00 89 1024.0
20260509115308 46 0.0 0.0 0.00 0.00 0.00 89 1024.4
20260509114807 47 0.0 0.0 0.00 0.00 0.00 90 1023.9
20260509114306 46 0.0 0.0 0.00 0.00 0.00 90 1024.2
20260509113807 46 0.0 0.0 0.00 0.00 0.00 91 1024.0
20260509113306 46 0.0 0.0 0.00 0.00 0.00 90 1024.4
20260509112807 47 0.0 0.0 0.00 0.00 0.00 90 1023.8
20260509112307 47 0.0 0.0 0.00 0.00 0.00 90 1024.1
20260509111806 47 0.0 0.0 0.00 0.00 0.00 90 1024.0
20260509111306 47 0.0 0.0 0.00 0.00 0.00 91 1023.9
20260509110806 47 0.0 0.0 0.00 0.00 0.00 90 1024.4
20260509110307 48 0.0 0.0 0.00 0.00 0.00 92 1023.4
20260509105806 47 0.0 0.0 0.00 0.00 0.00 91 1023.9
20260509105307 47 0.0 0.0 0.00 0.00 0.00 92 1023.8
20260509104806 47 0.0 0.0 0.00 0.00 0.00 94 1023.7
20260509104307 47 0.0 0.0 0.00 0.00 0.00 94 1023.9
20260509103806 47 0.0 0.0 0.00 0.00 0.00 94 1024.0
20260509103306 47 0.0 0.0 0.00 0.00 0.00 95 1024.1
20260509102807 47 0.0 0.0 0.00 0.00 0.00 95 1023.7
20260509102306 47 0.0 0.0 0.00 0.00 0.00 95 1023.9
20260509101807 47 0.0 0.0 0.00 0.00 0.00 95 1024.7
20260509101306 47 0.0 0.0 0.00 0.00 0.00 93 1023.8
20260509100806 48 0.0 0.0 0.00 0.00 0.00 97 1022.6
20260509100306 46 0.0 0.0 0.00 0.00 0.00 98 1023.5
20260509095806 46 0.0 0.0 0.00 0.00 0.00 10 1024.0
20260509095306 46 0.0 0.0 0.00 0.00 0.00 10 1023.5
20260509094806 46 0.0 0.0 0.00 0.00 0.00 10 1024.1
20260509094306 46 0.0 0.0 0.00 0.00 0.00 10 1024.0
20260509093806 46 0.0 0.0 0.00 0.00 0.00 10 1024.0
20260509093306 46 0.0 0.0 0.00 0.00 0.00 10 1023.8
20260509092806 46 0.0 0.0 0.00 0.00 0.00 10 1023.7
20260509092307 46 0.0 0.0 0.00 0.00 0.00 10 1023.9
20260509091806 46 0.0 0.0 0.00 0.00 0.00 10 1024.1
20260509091306 46 0.0 0.0 0.00 0.00 0.00 10 1023.1
20260509090806 46 0.0 0.0 0.00 0.00 0.00 10 1023.8
20260509090306 46 0.0 0.0 0.00 0.00 0.00 10 1023.6
20260509085806 46 0.0 0.0 0.00 0.00 0.00 10 1023.6
20260509085307 46 0.0 0.0 0.00 0.00 0.00 10 1023.8
20260509084807 47 0.0 0.0 0.00 0.00 0.00 10 1023.7
20260509084306 47 0.0 0.0 0.00 0.00 0.00 10 1023.4
20260509083806 47 0.0 0.0 0.00 0.00 0.00 10 1023.1
20260509083306 46 0.0 0.0 0.00 0.00 0.00 10 1023.7
20260509082806 47 0.0 0.0 0.00 0.00 0.00 10 1023.6
20260509082307 47 0.0 0.0 0.00 0.00 0.00 10 1023.2
20260509081806 47 0.0 0.0 0.00 0.00 0.00 10 1023.6
20260509081306 47 0.0 0.0 0.00 0.00 0.00 10 1023.8
20260509080806 47 0.0 0.0 0.00 0.00 0.00 10 1023.5
20260509080306 47 0.0 0.0 0.00 0.00 0.00 10 1024.3
20260509075806 47 0.0 0.0 0.00 0.00 0.00 99 1023.4
20260509075306 47 0.0 0.0 0.00 0.00 0.00 10 1023.9
20260509074806 48 0.0 0.0 0.00 0.00 0.00 99 1024.1
20260509074306 49 0.0 0.0 0.00 0.00 0.00 95 1022.8
20260509073806 49 0.0 0.0 0.00 0.00 0.00 98 1023.0
20260509073306 48 0.0 0.0 0.00 0.00 0.00 98 1023.4
20260509072806 49 0.0 0.0 0.00 0.00 0.00 98 1023.5
20260509072307 49 0.0 0.0 0.00 0.00 0.00 98 1022.3
20260509071807 48 0.0 0.0 0.00 0.00 0.00 10 1022.9
20260509071306 48 0.0 0.0 0.00 0.00 0.00 10 1023.4
20260509070806 48 0.0 0.0 0.00 0.00 0.00 10 1023.6
20260509070306 48 0.0 0.0 0.00 0.00 0.00 10 1024.0
20260509065806 49 0.0 0.0 0.00 0.00 0.00 98 1023.3
20260509065306 48 0.0 0.0 0.00 0.00 0.00 10 1023.0
20260509064806 48 0.0 0.0 0.00 0.00 0.00 10 1023.7
20260509064306 48 0.0 0.0 0.00 0.00 0.00 10 1023.6
20260509063806 48 0.0 0.0 0.00 0.00 0.00 10 1023.7
20260509063306 48 0.0 0.0 0.00 0.00 0.00 10 1024.1
20260509062806 48 0.0 0.0 0.00 0.00 0.00 99 1024.0
20260509062306 49 0.0 0.0 0.00 0.00 0.00 10 1024.2
20260509061806 49 0.0 0.0 0.00 0.00 0.00 99 1024.4
20260509061306 49 0.0 0.0 0.00 0.00 0.00 98 1024.3
20260509060806 50 0.0 0.0 0.00 0.00 0.00 95 1024.0
20260509060306 50 0.0 0.0 0.00 0.00 0.00 96 1023.1
20260509055806 49 0.0 0.0 0.00 0.00 0.00 97 1023.6
20260509055307 49 0.0 0.0 0.00 0.00 0.00 99 1023.6
20260509054806 49 0.0 0.0 0.00 0.00 0.00 99 1023.9
20260509054306 49 0.0 0.0 0.00 0.00 0.00 97 1023.5
20260509053806 49 0.0 0.0 0.00 0.00 0.00 96 1023.6
20260509053306 49 0.0 0.0 0.00 0.00 0.00 95 1024.4
20260509052806 50 0.0 0.0 0.00 0.00 0.00 93 1024.2
20260509052307 50 0.0 0.0 0.00 0.00 0.00 92 1023.9
20260509051806 50 0.0 0.0 0.00 0.00 0.00 91 1024.0
20260509051306 50 0.0 0.0 0.00 0.00 0.00 90 1024.4
20260509050806 50 0.0 0.0 0.00 0.00 0.00 90 1024.0
20260509050306 50 0.0 0.0 0.00 0.00 0.00 89 1023.9
20260509045806 51 0.0 0.0 0.00 0.00 0.00 89 1023.7
20260509045307 51 0.0 0.0 0.00 0.00 0.00 88 1023.9
20260509044806 51 0.0 0.0 0.00 0.00 0.00 88 1023.8
20260509044306 51 0.0 0.0 0.00 0.00 0.00 87 1023.7
20260509043806 51 0.0 0.0 0.00 0.00 0.00 87 1023.4
20260509043306 51 0.0 0.0 0.00 0.00 0.00 87 1023.7
20260509042806 51 0.0 0.0 0.00 0.00 0.00 87 1023.8
20260509042307 51 0.0 0.0 0.00 0.00 0.00 87 1023.9
20260509041806 51 0.0 0.0 0.00 0.00 0.00 88 1023.1
20260509041306 51 0.0 0.0 0.00 0.00 0.00 88 1024.3
20260509040806 51 0.0 0.0 0.00 0.00 0.00 88 1024.3
20260509040306 52 0.0 0.0 0.00 0.00 0.00 86 1023.9
20260509035806 51 0.0 0.0 0.00 0.00 0.00 86 1024.6
20260509035306 52 0.0 0.0 0.00 0.00 0.00 85 1024.3
20260509034806 52 0.0 0.0 0.00 0.00 0.00 83 1024.2
20260509034307 52 0.0 0.0 0.00 0.00 0.00 83 1024.1
20260509033806 53 0.0 0.0 0.00 0.00 0.00 83 1024.2
20260509033306 53 0.0 0.0 0.00 0.00 0.00 83 1023.8
20260509032806 53 0.0 0.0 0.00 0.00 0.00 83 1024.0
20260509032307 53 0.0 0.0 0.00 0.00 0.00 84 1024.0
20260509031806 53 0.0 0.0 0.00 0.00 0.00 84 1024.1
20260509031307 52 0.0 0.0 0.00 0.00 0.00 85 1024.5
20260509030806 52 0.0 0.0 0.00 0.00 0.00 86 1024.2
20260509030306 52 0.0 0.0 0.00 0.00 0.00 87 1024.5
20260509025806 52 0.0 0.0 0.00 0.00 0.00 87 1024.6
20260509025307 52 0.0 0.0 0.00 0.00 0.00 88 1024.7
20260509024806 52 0.0 0.0 0.00 0.00 0.00 89 1024.5
20260509024306 52 0.0 0.0 0.00 0.00 0.00 89 1024.9
20260509023807 52 0.0 0.0 0.00 0.00 0.00 90 1024.5
20260509023306 52 0.0 0.0 0.00 0.00 0.00 91 1024.7
20260509022806 51 0.0 0.0 0.00 0.00 0.00 91 1025.2
20260509022307 52 0.0 0.0 0.00 0.00 0.00 91 1024.9
20260509021806 52 0.0 0.0 0.00 0.00 0.00 90 1025.0
20260509021306 52 0.0 0.0 0.00 0.00 0.00 89 1024.8
20260509020806 52 0.0 0.0 0.00 0.00 0.00 89 1024.6
20260509020306 52 0.0 0.0 0.00 0.00 0.00 89 1024.6
20260509015806 52 0.0 0.0 0.00 0.00 0.00 89 1024.6
20260509015306 52 0.0 0.0 0.00 0.00 0.00 88 1024.7
20260509014806 52 0.0 0.0 0.00 0.00 0.00 87 1024.3
20260509014306 52 0.0 0.0 0.00 0.00 0.00 87 1024.7
20260509013806 53 0.0 0.0 0.00 0.00 0.00 87 1024.4
20260509013306 53 0.0 0.0 0.00 0.00 0.00 86 1024.4
20260509012806 53 0.0 0.0 0.00 0.00 0.00 86 1023.9
20260509012307 53 0.0 0.0 0.00 0.00 0.00 86 1023.9
20260509011806 53 0.0 0.0 0.00 0.00 0.00 87 1024.1
20260509011306 53 0.0 0.0 0.00 0.00 0.00 86 1023.8
20260509010806 53 0.0 0.0 0.00 0.00 0.00 87 1024.2
20260509010306 53 0.0 0.0 0.00 0.00 0.00 86 1024.3
20260509005806 53 0.0 0.0 0.00 0.00 0.00 85 1024.4
20260509005306 54 0.0 0.0 0.00 0.00 0.00 83 1024.2
20260509004806 54 0.0 0.0 0.00 0.00 0.00 83 1024.3
20260509004306 54 0.0 0.0 0.00 0.00 0.00 83 1024.3
20260509003806 54 0.0 0.0 0.00 0.00 0.00 84 1024.1
20260509003306 54 0.0 0.0 0.00 0.00 0.00 86 1024.0
20260509002806 54 0.0 0.0 0.00 0.00 0.00 86 1024.1
20260509002307 54 0.0 0.0 0.00 0.00 0.00 85 1024.1
20260509001806 54 0.0 0.0 0.00 0.00 0.00 84 1023.7
20260509001306 54 0.0 0.0 0.00 0.00 0.00 84 1023.7
20260509000806 55 0.0 0.0 0.00 0.00 0.00 84 1023.7
20260509000307 55 0.0 0.0 0.00 0.00 0.00 83 1023.9
20260508235806 55 0.0 0.0 0.00 0.00 0.00 81 1023.6
20260508235306 55 0.0 0.0 0.00 0.00 0.00 80 1023.7
20260508234806 55 0.0 0.0 0.00 0.00 0.00 79 1023.8
20260508234306 56 0.0 0.0 0.00 0.00 0.00 78 1023.7
20260508233806 56 0.0 0.0 0.00 0.00 0.00 76 1023.7
20260508233306 56 0.0 0.0 0.00 0.00 0.00 74 1023.7
20260508232806 57 0.0 0.0 0.00 0.00 0.00 71 1023.7
20260508232307 57 0.0 0.0 0.00 0.00 0.00 69 1023.8
20260508231806 58 0.0 0.0 0.00 0.00 0.00 65 1023.4
20260508231306 58 0.0 0.0 0.00 0.00 0.00 64 1023.1
20260508230806 58 0.0 0.0 0.00 0.00 0.00 63 1023.2
20260508230306 58 0.0 0.0 0.00 0.00 0.00 64 1023.7
20260508225806 58 0.0 0.0 0.00 0.00 0.00 63 1023.3
20260508225307 58 0.0 0.0 0.00 0.00 0.00 62 1023.3
20260508224806 58 0.0 0.0 0.00 0.00 0.00 62 1023.0
20260508224306 58 0.0 0.0 0.00 0.00 0.00 62 1023.3
20260508223806 58 0.0 0.0 0.00 0.00 0.00 61 1023.4
20260508223306 58 0.0 0.0 0.00 0.00 0.00 60 1022.9
20260508222806 58 0.0 0.0 0.00 0.00 0.00 60 1022.9
20260508222306 58 0.0 0.0 0.00 0.00 0.00 60 1022.9
20260508221806 58 0.0 0.0 0.00 0.00 0.00 60 1022.9
20260508221306 58 0.0 0.0 0.00 0.00 0.00 59 1022.9
20260508220806 58 0.0 0.0 0.00 0.00 0.00 59 1022.6
20260508220306 58 0.0 0.0 0.00 0.00 0.00 59 1023.0
20260508215806 58 0.0 0.0 0.00 0.00 0.00 58 1023.2
20260508215307 59 0.0 0.0 0.00 0.00 0.00 57 1022.8
20260508214806 59 0.0 0.0 0.00 0.00 0.00 56 1023.1
20260508214306 59 0.0 0.0 0.00 0.00 0.00 54 1022.8
20260508213806 59 0.0 0.0 0.00 0.00 0.00 51 1022.6
20260508213307 60 0.0 0.0 0.00 0.00 0.00 46 1022.5
20260508212806 60 0.0 0.0 0.00 0.00 0.00 44 1022.3
20260508212306 60 0.0 0.0 0.00 0.00 0.00 44 1022.5
20260508211806 60 0.0 0.0 0.00 0.00 0.00 43 1022.2
20260508211306 60 0.0 0.0 0.00 0.00 0.00 42 1022.3
20260508210806 60 0.0 0.0 0.00 0.00 0.00 43 1022.5
20260508210306 61 0.0 0.0 0.00 0.00 0.00 44 1021.9
20260508205806 60 0.0 0.0 0.00 0.00 0.00 43 1022.3
20260508205306 61 0.0 0.0 0.00 0.00 0.00 44 1022.1
20260508204806 61 0.0 0.0 0.00 0.00 0.00 43 1022.2
20260508204306 61 0.0 0.0 0.00 0.00 0.00 45 1022.0
20260508203806 61 0.0 0.0 0.00 0.00 0.00 45 1022.1
20260508203307 61 0.0 0.0 0.00 0.00 0.00 45 1022.1
20260508202805 61 0.0 0.0 0.00 0.00 0.00 46 1022.1
20260508202307 61 0.0 0.0 0.00 0.00 0.00 44 1022.0
20260508201806 61 0.0 0.0 0.00 0.00 0.00 43 1022.0
20260508201306 61 0.0 0.0 0.00 0.00 0.00 42 1022.1
20260508200806 61 0.0 0.0 0.00 0.00 0.00 41 1021.8
20260508200306 61 0.0 0.0 0.00 0.00 0.00 41 1021.9
20260508195805 61 0.0 0.0 0.00 0.00 0.00 41 1022.0
20260508195306 61 0.0 0.0 0.00 0.00 0.00 41 1021.9
20260508194806 61 0.0 0.0 0.00 0.00 0.00 40 1022.2
20260508194306 61 0.0 0.0 0.00 0.00 0.00 40 1022.2
20260508193806 61 0.0 0.0 0.00 0.00 0.00 40 1022.2
20260508193305 61 0.0 0.0 0.00 0.00 0.00 38 1022.7
20260508192806 61 0.0 0.0 0.00 0.00 0.00 40 1022.3
20260508192306 61 0.0 0.0 0.00 0.00 0.00 39 1022.3
20260508191806 61 0.0 0.0 0.00 0.00 0.00 41 1022.6
20260508191306 61 0.0 0.0 0.00 0.00 0.00 40 1022.0
20260508190806 61 0.0 0.0 0.00 0.00 0.00 38 1022.7
20260508190306 61 0.0 0.0 0.00 0.00 0.00 38 1022.8
20260508185806 61 0.0 0.0 0.00 0.00 0.00 40 1022.4
20260508185306 61 0.0 0.0 0.00 0.00 0.00 41 1022.7
20260508184806 61 0.0 0.0 0.00 0.00 0.00 41 1022.9
20260508184306 61 0.0 0.0 0.00 0.00 0.00 41 1022.7
20260508183805 60 0.0 0.0 0.00 0.00 0.00 40 1023.3
20260508183305 61 0.0 0.0 0.00 0.00 0.00 44 1023.1
20260508182806 61 0.0 0.0 0.00 0.00 0.00 45 1023.2
20260508182307 61 0.0 0.0 0.00 0.00 0.00 48 1022.8
20260508181806 60 0.0 0.0 0.00 0.00 0.00 51 1023.1
20260508181306 60 0.0 0.0 0.00 0.00 0.00 52 1023.1
20260508180806 60 0.0 0.0 0.00 0.00 0.00 52 1023.0
20260508180306 60 0.0 0.0 0.00 0.00 0.00 54 1022.6
20260508175806 60 0.0 0.0 0.00 0.00 0.00 55 1023.6
20260508175306 60 0.0 0.0 0.00 0.00 0.00 55 1023.1
20260508174806 60 0.0 0.0 0.00 0.00 0.00 55 1023.7
20260508174306 60 0.0 0.0 0.00 0.00 0.00 56 1023.0
20260508173806 59 0.0 0.0 0.00 0.00 0.00 53 1023.2
20260508173305 59 0.0 0.0 0.00 0.00 0.00 55 1024.1
20260508172806 59 0.0 0.0 0.00 0.00 0.00 57 1023.8
20260508172307 59 0.0 0.0 0.00 0.00 0.00 63 1023.4
20260508171805 59 0.0 0.0 0.00 0.00 0.00 64 1024.0
20260508171306 59 0.0 0.0 0.00 0.00 0.00 65 1023.7
20260508170806 59 0.0 0.0 0.00 0.00 0.00 64 1024.2
20260508170306 59 0.0 0.0 0.00 0.00 0.00 63 1024.0
20260508165806 58 0.0 0.0 0.00 0.00 0.00 65 1024.6
20260508165307 58 0.0 0.0 0.00 0.00 0.00 70 1024.4
20260508164806 58 0.0 0.0 0.00 0.00 0.00 72 1024.3
20260508164306 58 0.0 0.0 0.00 0.00 0.00 73 1024.2
20260508163806 58 0.0 0.0 0.00 0.00 0.00 74 1025.1
20260508163306 58 0.0 0.0 0.00 0.00 0.00 76 1025.1
20260508162805 58 0.0 0.0 0.00 0.00 0.00 79 1024.8
20260508162307 57 0.0 0.0 0.00 0.00 0.00 81 1024.7
20260508161806 57 0.0 0.0 0.00 0.00 0.00 82 1025.1
20260508161305 57 0.0 0.0 0.00 0.00 0.00 83 1025.2
20260508160806 57 0.0 0.0 0.00 0.00 0.00 84 1024.9
20260508160306 57 0.0 0.0 0.00 0.00 0.00 84 1025.4
20260508155806 56 0.0 0.0 0.00 0.00 0.00 86 1025.6
20260508155306 57 0.0 0.0 0.00 0.00 0.00 87 1025.0
20260508154805 56 0.0 0.0 0.00 0.00 0.00 87 1025.2
20260508154305 56 0.0 0.0 0.00 0.00 0.00 86 1026.1
20260508153806 57 0.0 0.0 0.00 0.00 0.00 86 1025.0
20260508153306 56 0.0 0.0 0.00 0.00 0.00 86 1025.2
20260508152806 56 0.0 0.0 0.00 0.00 0.00 87 1024.8
20260508152306 55 0.0 0.0 0.00 0.00 0.00 88 1026.1
20260508151806 55 0.0 0.0 0.00 0.00 0.00 88 1025.4
20260508151305 55 0.0 0.0 0.00 0.00 0.00 86 1026.4
20260508150806 55 0.0 0.0 0.00 0.00 0.00 87 1025.5
20260508150305 55 0.0 0.0 0.00 0.00 0.00 88 1026.6
20260508145805 55 0.0 0.0 0.00 0.00 0.00 88 1025.5
20260508145307 55 0.0 0.0 0.00 0.00 0.00 89 1026.5
20260508144806 55 0.0 0.0 0.00 0.00 0.00 90 1026.0
20260508144306 55 0.0 0.0 0.00 0.00 0.00 91 1026.1
20260508143805 55 0.0 0.0 0.00 0.00 0.00 91 1025.9
20260508143305 54 0.0 0.0 0.00 0.00 0.00 95 1026.2
20260508142806 54 0.0 0.0 0.00 0.00 0.00 96 1026.8
20260508141806 54 0.0 0.0 0.00 0.00 0.00 96 1027.5
20260508141306 54 0.0 0.0 0.00 0.00 0.00 96 1026.1
20260508140805 53 0.0 0.0 0.00 0.00 0.00 99 1027.0
20260508140305 53 0.0 0.0 0.00 0.00 0.00 99 1027.0
20260508135806 53 0.0 0.0 0.00 0.00 0.00 98 1027.4